Photometre #859[NE_1.6] Durban_UKZN AOT

File : 20221128_859.hum

28/11/2022,03:34:06,TEMP=17.8,BA=5.44,STAT.A=14.0,ExtBa=12.35
28/11/2022,03:37:13,TEMP=18.0,BA=5.44,STAT.A=13.5,ExtBa=12.30
28/11/2022,03:40:51,TEMP=18.1,BA=5.48,STAT.A=13.5,ExtBa=12.29
28/11/2022,03:45:09,TEMP=18.2,BA=5.48,STAT.A=13.5,ExtBa=12.28
28/11/2022,03:50:18,TEMP=18.4,BA=5.48,STAT.A=13.5,ExtBa=12.28
28/11/2022,03:54:21,TEMP=18.9,BA=5.48,STAT.D=13.5,ExtBa=12.26
28/11/2022,03:56:36,TEMP=19.3,BA=5.48,STAT.A=13.5,ExtBa=12.24
28/11/2022,04:00:21,TEMP=19.4,BA=5.48,STAT.D=13.5,ExtBa=12.27
28/11/2022,04:03:21,TEMP=19.6,BA=5.48,STAT.D=13.5,ExtBa=12.26
28/11/2022,04:05:28,TEMP=19.8,BA=5.48,STAT.B=13.5,ExtBa=12.24
28/11/2022,04:15:32,TEMP=19.6,BA=5.44,STAT.A=13.5,ExtBa=12.23
28/11/2022,04:17:27,TEMP=19.8,BA=5.44,STAT.A=13.5,ExtBa=12.25
28/11/2022,04:19:22,TEMP=19.8,BA=5.44,STAT.A=13.5,ExtBa=12.25
28/11/2022,04:22:20,TEMP=19.7,BA=5.44,STAT.A=13.5,ExtBa=12.26
28/11/2022,04:28:20,TEMP=19.4,BA=5.44,STAT.C=13.5,ExtBa=12.28
28/11/2022,04:35:13,TEMP=19.5,BA=5.48,STAT.A=14.0,ExtBa=12.30
28/11/2022,04:43:14,TEMP=19.7,BA=5.52,STAT.A=14.0,ExtBa=12.33
28/11/2022,04:52:40,TEMP=20.0,BA=5.52,STAT.A=14.0,ExtBa=12.36
28/11/2022,04:57:22,TEMP=20.4,BA=5.52,STAT.D=14.0,ExtBa=12.35
28/11/2022,05:00:22,TEMP=20.8,BA=5.52,STAT.D=13.5,ExtBa=12.33
28/11/2022,05:03:59,TEMP=21.0,BA=5.52,STAT.A=13.5,ExtBa=12.35
28/11/2022,05:15:22,TEMP=20.7,BA=5.52,STAT.D=14.0,ExtBa=12.35
28/11/2022,05:17:51,TEMP=20.9,BA=5.52,STAT.B=13.5,ExtBa=12.31
28/11/2022,05:30:22,TEMP=20.5,BA=5.52,STAT.D=14.0,ExtBa=12.34
28/11/2022,05:42:22,TEMP=20.7,BA=5.56,STAT.D=14.0,ExtBa=12.43
28/11/2022,05:45:53,TEMP=21.2,BA=5.56,STAT.B=13.5,ExtBa=12.32
28/11/2022,05:57:22,TEMP=21.4,BA=5.56,STAT.D=14.0,ExtBa=12.48
28/11/2022,05:59:28,TEMP=21.9,BA=5.56,STAT.D=13.5,ExtBa=12.50
28/11/2022,06:03:23,TEMP=22.3,BA=5.52,STAT.D=13.5,ExtBa=12.59
28/11/2022,06:06:22,TEMP=22.9,BA=5.52,STAT.D=13.5,ExtBa=12.57
28/11/2022,06:09:22,TEMP=23.4,BA=5.52,STAT.D=13.5,ExtBa=12.60
28/11/2022,06:12:23,TEMP=23.9,BA=5.52,STAT.D=13.5,ExtBa=12.53
28/11/2022,06:14:34,TEMP=24.2,BA=5.52,STAT.D=13.5,ExtBa=12.43
28/11/2022,06:27:23,TEMP=22.8,BA=5.56,STAT.D=14.0,ExtBa=12.40
28/11/2022,06:29:29,TEMP=23.0,BA=5.56,STAT.D=14.0,ExtBa=12.36
28/11/2022,06:42:23,TEMP=21.9,BA=5.56,STAT.D=14.0,ExtBa=12.43
28/11/2022,06:44:30,TEMP=22.2,BA=5.56,STAT.F,ExtBa=12.39